Hourly Data Report for October 11, 2014

All times are specified in Local Standard Time (LST). Add 1 hour to adjust for Daylight Saving Time where and when it is observed.

WINNIPEG A CS
MANITOBA

49°55'00.000" N
97°14'58.000" W
238.70 m
502S001
71849
XWG

Download Data

Hourly Data (October 2014)
Hourly Data Report for October 11, 2014
Temp Definition
°C
Dew Point Temp Definition
°C
Rel Hum Definition
%
Wind Dir Definition
10's deg

Wind Spd Definition
km/h
Visibility Definition
km
Stn Press Definition
kPa
Hmdx Definition


Wind Chill Definition


Weather Definition


TIME
00:00 5.1 0.0 70 19 19   98.80     LegendNANA
01:00 4.4 -0.4 71 19 16   98.77     LegendNANA
02:00 4.5 -0.8 69 20 18   98.72     LegendNANA
03:00 4.7 -0.9 67 21 16   98.69     LegendNANA
04:00 3.8 -1.2 70 19 16   98.67     LegendNANA
05:00 2.7 -1.5 74 19 15   98.65     LegendNANA
06:00 2.9 -1.6 73 20 16   98.63     LegendNANA
07:00 3.5 -1.5 70 20 20   98.60     LegendNANA
08:00 5.2 -1.1 64 20 21   98.58     LegendNANA
09:00 8.1 0.1 57 20 22   98.55     LegendNANA
10:00 11.3 0.7 48 20 26   98.47     LegendNANA
11:00 13.8 0.5 40 19 35   98.36     LegendNANA
12:00 15.0 -0.8 34 19 37   98.24     LegendNANA
13:00 15.4 -0.3 34 19 40   98.09     LegendNANA
14:00 16.3 -0.4 32 19 45   97.94     LegendNANA
15:00 16.5 -0.3 32 18 45   97.81     LegendNANA
16:00 16.6 0.1 32 18 41   97.69     LegendNANA
17:00 15.9 0.2 34 19 39   97.62     LegendNANA
18:00 13.9 1.1 42 18 34   97.54     LegendNANA
19:00 13.3 1.5 45 18 35   97.48     LegendNANA
20:00 12.7 1.8 47 18 35   97.39     LegendNANA
21:00 12.4 1.9 49 18 39   97.33     LegendNANA
22:00 11.6 2.2 52 18 34   97.29     LegendNANA
23:00 11.3 2.6 55 19 29   97.24     LegendNANA

Notes on Data Quality.

Legend

  • E = Estimated
  • M = Missing
  • NA = Not Available
  • ‡ = Partner data that is not subject to review by the National Climate Archives
Date modified: